When you browse on this site, cookies collect data to enhance your experience and personalize the content and advertising you see.
Visit our Privacy Policy to learn more. By continuing to use the site, you agree to this use of cookies and data.
  • In United Kingdom
  • List of Countries
  • For 7 days
  • Water Temperature
  • Satellite Maps
  • Weather Map
  • Weather Widgets
  • user-avatar
    Login

    Hourly Weather Wiktoria

    Today, 24 April, Wednesday

    Time Temperature Precipitation Wind Pressure Humidity
    00:00 +17°C° 0 mm 2 mps 756 mmHg 87%
    01:00 +16°C° 0 mm 2 mps 756 mmHg 89%
    02:00 +16°C° 0 mm 2 mps 756 mmHg 89%
    03:00 +16°C° 0 mm 2 mps 756 mmHg 90%
    04:00 +16°C° 0 mm 2 mps 755 mmHg 92%
    05:00 +16°C° 0 mm 2 mps 755 mmHg 92%
    06:00 +15°C° 0 mm 2 mps 756 mmHg 92%
    07:00 +15°C° 0 mm 2 mps 756 mmHg 92%
    08:00 +17°C° 0 mm 2 mps 756 mmHg 84%
    09:00 +19°C° 0 mm 2 mps 756 mmHg 75%
    10:00 +21°C° 0 mm 2 mps 756 mmHg 67%
    11:00 +24°C° 0 mm 2 mps 755 mmHg 63%
    12:00 +25°C° 0 mm 2 mps 755 mmHg 58%
    13:00 +26°C° 0 mm 2 mps 755 mmHg 54%
    14:00 +26°C° 0.1 mm 3 mps 754 mmHg 54%
    15:00 +26°C° 0.1 mm 3 mps 754 mmHg 54%
    16:00 +25°C° 0 mm 3 mps 753 mmHg 56%
    17:00 +24°C° 0 mm 3 mps 754 mmHg 62%
    18:00 +23°C° 0 mm 2 mps 754 mmHg 68%
    19:00 +20°C° 0 mm 2 mps 754 mmHg 73%
    20:00 +20°C° 0 mm 2 mps 754 mmHg 77%
    21:00 +19°C° 0 mm 2 mps 755 mmHg 81%
    22:00 +18°C° 0 mm 2 mps 755 mmHg 85%
    23:00 +17°C° 0 mm 2 mps 755 mmHg 87%

    Tomorrow, 25 April, Thursday

    Time Temperature Precipitation Wind Pressure Humidity
    00:00 +16°C° 0 mm 2 mps 755 mmHg 89%
    01:00 +16°C° 0 mm 2 mps 755 mmHg 92%
    02:00 +15°C° 0 mm 2 mps 754 mmHg 92%
    03:00 +14°C° 0 mm 3 mps 754 mmHg 92%
    04:00 +13°C° 0 mm 3 mps 754 mmHg 92%
    05:00 +12°C° 0 mm 3 mps 754 mmHg 92%
    06:00 +11°C° 0 mm 3 mps 754 mmHg 92%
    07:00 +12°C° 0 mm 2 mps 754 mmHg 92%
    08:00 +14°C° 0 mm 2 mps 755 mmHg 80%
    09:00 +16°C° 0 mm 2 mps 755 mmHg 68%
    10:00 +18°C° 0 mm 2 mps 755 mmHg 56%
    11:00 +19°C° 0 mm 2 mps 754 mmHg 50%
    12:00 +20°C° 0 mm 2 mps 754 mmHg 44%
    13:00 +22°C° 0 mm 3 mps 753 mmHg 39%
    14:00 +22°C° 0 mm 3 mps 753 mmHg 38%
    15:00 +22°C° 0 mm 3 mps 752 mmHg 38%
    16:00 +22°C° 0 mm 3 mps 751 mmHg 37%
    17:00 +20°C° 0 mm 3 mps 752 mmHg 42%
    18:00 +18°C° 0 mm 3 mps 752 mmHg 47%
    19:00 +17°C° 0 mm 2 mps 752 mmHg 52%
    20:00 +16°C° 0 mm 2 mps 752 mmHg 57%
    21:00 +15°C° 0 mm 2 mps 752 mmHg 62%
    22:00 +13°C° 0 mm 3 mps 752 mmHg 66%
    23:00 +14°C° 0 mm 2 mps 752 mmHg 71%

    Day after tomorrow, 26 April, Friday

    Time Temperature Precipitation Wind Pressure Humidity
    00:00 +13°C° 0 mm 2 mps 752 mmHg 75%
    01:00 +12°C° 0 mm 2 mps 751 mmHg 80%
    02:00 +12°C° 0 mm 2 mps 751 mmHg 83%
    03:00 +10°C° 0 mm 2 mps 751 mmHg 86%
    04:00 +10°C° 0 mm 2 mps 750 mmHg 89%
    05:00 +10°C° 0 mm 2 mps 750 mmHg 90%
    06:00 +10°C° 0 mm 2 mps 750 mmHg 90%
    07:00 +10°C° 0 mm 3 mps 750 mmHg 91%
    08:00 +12°C° 0 mm 4 mps 751 mmHg 81%
    09:00 +13°C° 0 mm 5 mps 751 mmHg 72%
    10:00 +15°C° 0 mm 7 mps 752 mmHg 63%
    11:00 +15°C° 0.1 mm 7 mps 752 mmHg 57%
    12:00 +15°C° 0.1 mm 8 mps 752 mmHg 50%
    13:00 +15°C° 0.1 mm 8 mps 751 mmHg 44%
    14:00 +15°C° 0 mm 8 mps 752 mmHg 42%
    15:00 +15°C° 0 mm 7 mps 752 mmHg 41%
    16:00 +14°C° 0 mm 7 mps 752 mmHg 39%
    17:00 +13°C° 0 mm 6 mps 753 mmHg 43%
    18:00 +12°C° 0 mm 5 mps 754 mmHg 48%
    19:00 +11°C° 0 mm 4 mps 754 mmHg 52%
    20:00 +10°C° 0 mm 4 mps 755 mmHg 56%
    21:00 +8°C° 0 mm 3 mps 755 mmHg 60%
    22:00 +7°C° 0 mm 3 mps 756 mmHg 65%
    23:00 +7°C° 0 mm 3 mps 756 mmHg 68%

    27 April, Saturday

    Time Temperature Precipitation Wind Pressure Humidity
    00:00 +5°C° 0 mm 3 mps 756 mmHg 70%
    01:00 +5°C° 0 mm 3 mps 756 mmHg 73%
    02:00 +4°C° 0 mm 3 mps 756 mmHg 75%
    03:00 +5°C° 0 mm 2 mps 757 mmHg 76%
    04:00 +5°C° 0 mm 2 mps 757 mmHg 78%
    05:00 +5°C° 0 mm 2 mps 757 mmHg 80%
    06:00 +4°C° 0 mm 2 mps 757 mmHg 82%
    07:00 +4°C° 0 mm 2 mps 758 mmHg 84%
    08:00 +7°C° 0 mm 2 mps 758 mmHg 75%
    09:00 +9°C° 0 mm 3 mps 759 mmHg 67%
    10:00 +11°C° 0 mm 3 mps 759 mmHg 58%
    11:00 +13°C° 0 mm 4 mps 758 mmHg 54%
    12:00 +14°C° 0 mm 4 mps 758 mmHg 50%
    13:00 +15°C° 0 mm 4 mps 757 mmHg 46%
    14:00 +15°C° 0 mm 4 mps 757 mmHg 47%
    15:00 +15°C° 0 mm 4 mps 757 mmHg 48%
    16:00 +15°C° 0 mm 4 mps 757 mmHg 49%
    17:00 +13°C° 0 mm 3 mps 757 mmHg 54%
    18:00 +12°C° 0 mm 3 mps 757 mmHg 59%
    19:00 +12°C° 0 mm 2 mps 757 mmHg 64%
    20:00 +10°C° 0 mm 2 mps 757 mmHg 68%
    21:00 +9°C° 0 mm 2 mps 758 mmHg 71%
    22:00 +9°C° 0 mm 2 mps 758 mmHg 75%
    23:00 +8°C° 0 mm 2 mps 758 mmHg 78%

    28 April, Sunday

    Time Temperature Precipitation Wind Pressure Humidity
    00:00 +8°C° 0 mm 2 mps 757 mmHg 82%
    01:00 +7°C° 0 mm 2 mps 757 mmHg 85%
    02:00 +7°C° 0 mm 2 mps 757 mmHg 87%
    03:00 +7°C° 0 mm 2 mps 757 mmHg 89%
    04:00 +6°C° 0 mm 2 mps 757 mmHg 92%
    05:00 +6°C° 0 mm 2 mps 757 mmHg 93%
    06:00 +6°C° 0 mm 2 mps 757 mmHg 94%
    07:00 +6°C° 0 mm 2 mps 758 mmHg 96%
    08:00 +8°C° 0 mm 2 mps 758 mmHg 87%
    09:00 +10°C° 0 mm 2 mps 758 mmHg 78%
    10:00 +12°C° 0 mm 3 mps 758 mmHg 69%
    11:00 +14°C° 0 mm 3 mps 757 mmHg 62%
    12:00 +16°C° 0 mm 3 mps 757 mmHg 55%
    13:00 +18°C° 0 mm 3 mps 757 mmHg 49%
    14:00 +19°C° 0 mm 3 mps 756 mmHg 47%
    15:00 +19°C° 0 mm 3 mps 756 mmHg 45%
    16:00 +20°C° 0 mm 3 mps 756 mmHg 43%
    17:00 +18°C° 0 mm 3 mps 756 mmHg 50%
    18:00 +14°C° 0 mm 3 mps 757 mmHg 58%
    19:00 +12°C° 0 mm 3 mps 757 mmHg 65%
    20:00 +11°C° 0 mm 3 mps 757 mmHg 71%
    21:00 +10°C° 0 mm 3 mps 757 mmHg 76%
    22:00 +10°C° 0 mm 2 mps 758 mmHg 82%
    23:00 +9°C° 0 mm 2 mps 758 mmHg 84%

    29 April, Monday

    Time Temperature Precipitation Wind Pressure Humidity
    00:00 +9°C° 0 mm 2 mps 757 mmHg 87%
    01:00 +8°C° 0 mm 2 mps 757 mmHg 89%
    02:00 +8°C° 0 mm 2 mps 757 mmHg 91%
    03:00 +8°C° 0 mm 2 mps 757 mmHg 92%
    04:00 +8°C° 0 mm 2 mps 757 mmHg 93%
    05:00 +8°C° 0 mm 2 mps 757 mmHg 94%
    06:00 +8°C° 0 mm 2 mps 758 mmHg 94%
    07:00 +7°C° 0 mm 2 mps 758 mmHg 94%
    08:00 +10°C° 0 mm 3 mps 758 mmHg 85%
    09:00 +12°C° 0 mm 3 mps 758 mmHg 75%
    10:00 +16°C° 0 mm 3 mps 758 mmHg 65%
    11:00 +17°C° 0 mm 2 mps 758 mmHg 59%
    12:00 +19°C° 0 mm 2 mps 757 mmHg 53%
    13:00 +21°C° 0 mm 1 mps 756 mmHg 47%
    14:00 +21°C° 0 mm 1 mps 756 mmHg 46%
    15:00 +21°C° 0 mm 1 mps 756 mmHg 45%
    16:00 +21°C° 0 mm 1 mps 755 mmHg 45%
    17:00 +19°C° 0 mm 1 mps 756 mmHg 51%
    18:00 +16°C° 0 mm 1 mps 756 mmHg 58%
    19:00 +14°C° 0 mm 1 mps 756 mmHg 65%
    20:00 +14°C° 0 mm 1 mps 756 mmHg 66%
    21:00 +13°C° 0 mm 1 mps 756 mmHg 68%
    22:00 +13°C° 0 mm 1 mps 756 mmHg 70%
    23:00 +12°C° 0 mm 1 mps 756 mmHg 71%
    Show more